Location: Bakhuizen
(52.8696°N, 5.4575°E)
Time: 04:51:14
(UTC+00:00)

Cosmos 1908 Rocket - Pass Details

Date: 11 May 2021
Orbit: 606 x 632 km, 82.5° (Epoch: 14 June)

Event Time Altitude Azimuth Distance (km) Brightness Sun altitude
Rises 23:11:36 0° 346° (NNW) 2,941 8.6 -18.8°
Reaches altitude 10° 23:13:52 10° 343° (NNW) 2,029 7.4 -18.9°
Maximum altitude 23:18:18 59° 264° (W) 734 3.8 -18.9°
Enters shadow 23:19:44 39° 205° (SSW) 955 4.1 -18.9°
